When you browse on this site, cookies collect data to enhance your experience and personalize the content and advertising you see.
Visit our Privacy Policy to learn more. By continuing to use the site, you agree to this use of cookies and data.
  • In Hungary
  • List of Countries
  • For 7 days
  • Water Temperature
  • Weather Map
  • News
  • Weather Widgets
  • user-avatar
    Login

    Hourly Weather Koblenz

    Today, 9 December, Monday

    Time Temperature Precipitation Wind Pressure Humidity
    00:00 +7°C° 0.1 mm 6 mps 746 mmHg 80%
    01:00 +7°C° 0.1 mm 6 mps 746 mmHg 78%
    02:00 +7°C° 0 mm 6 mps 745 mmHg 79%
    03:00 +6°C° 0 mm 5 mps 745 mmHg 81%
    04:00 +6°C° 0 mm 5 mps 744 mmHg 82%
    05:00 +6°C° 0 mm 5 mps 744 mmHg 82%
    06:00 +5°C° 0 mm 6 mps 743 mmHg 82%
    07:00 +5°C° 0 mm 6 mps 743 mmHg 82%
    08:00 +5°C° 0.1 mm 6 mps 743 mmHg 83%
    09:00 +5°C° 0.1 mm 6 mps 743 mmHg 84%
    10:00 +5°C° 0.1 mm 6 mps 742 mmHg 85%
    11:00 +6°C° 0.3 mm 5 mps 743 mmHg 85%
    12:00 +6°C° 0.3 mm 5 mps 743 mmHg 86%
    13:00 +6°C° 0.3 mm 4 mps 743 mmHg 86%
    14:00 +6°C° 0.1 mm 4 mps 744 mmHg 85%
    15:00 +6°C° 0.1 mm 4 mps 745 mmHg 85%
    16:00 +7°C° 0.1 mm 3 mps 745 mmHg 84%
    17:00 +5°C° 0.3 mm 4 mps 747 mmHg 86%
    18:00 +4°C° 0.3 mm 6 mps 749 mmHg 87%
    19:00 +3°C° 0.3 mm 7 mps 751 mmHg 89%
    20:00 +3°C° 0.1 mm 6 mps 752 mmHg 86%
    21:00 +3°C° 0.1 mm 5 mps 754 mmHg 83%
    22:00 +3°C° 0.1 mm 4 mps 755 mmHg 80%
    23:00 +3°C° 0 mm 4 mps 756 mmHg 81%

    Tomorrow, 10 December, Tuesday

    Time Temperature Precipitation Wind Pressure Humidity
    00:00 +1°C° 0 mm 4 mps 757 mmHg 83%
    01:00 +2°C° 0 mm 3 mps 759 mmHg 84%
    02:00 +1°C° 0 mm 3 mps 759 mmHg 85%
    03:00 +1°C° 0 mm 3 mps 760 mmHg 85%
    04:00 +1°C° 0 mm 2 mps 761 mmHg 86%
    05:00 +1°C° 0 mm 2 mps 761 mmHg 87%
    06:00 +1°C° 0 mm 2 mps 762 mmHg 88%
    07:00 +2°C° 0 mm 1 mps 763 mmHg 89%
    08:00 +2°C° 0 mm 1 mps 763 mmHg 87%
    09:00 +3°C° 0 mm 1 mps 763 mmHg 84%
    10:00 +3°C° 0 mm 1 mps 764 mmHg 82%
    11:00 +3°C° 0 mm 2 mps 763 mmHg 78%
    12:00 +4°C° 0 mm 2 mps 763 mmHg 75%
    13:00 +4°C° 0 mm 3 mps 763 mmHg 71%
    14:00 +3°C° 0 mm 3 mps 762 mmHg 74%
    15:00 +4°C° 0 mm 2 mps 762 mmHg 77%
    16:00 +3°C° 0 mm 2 mps 761 mmHg 80%
    17:00 +3°C° 0 mm 2 mps 761 mmHg 83%
    18:00 +2°C° 0 mm 2 mps 760 mmHg 87%
    19:00 +1°C° 0 mm 2 mps 760 mmHg 90%
    20:00 +1°C° 0 mm 3 mps 760 mmHg 88%
    21:00 +1°C° 0 mm 3 mps 759 mmHg 87%
    22:00 +1°C° 0 mm 3 mps 759 mmHg 86%
    23:00 +1°C° 0 mm 3 mps 758 mmHg 84%

    Day after tomorrow, 11 December, Wednesday

    Time Temperature Precipitation Wind Pressure Humidity
    00:00 +1°C° 0 mm 3 mps 757 mmHg 82%
    01:00 +1°C° 0 mm 3 mps 757 mmHg 80%
    02:00 +2°C° 0.2 mm 3 mps 756 mmHg 79%
    03:00 +2°C° 0.2 mm 3 mps 755 mmHg 78%
    04:00 +2°C° 0.2 mm 3 mps 754 mmHg 76%
    05:00 +2°C° 0.5 mm 3 mps 754 mmHg 79%
    06:00 +2°C° 0.5 mm 3 mps 753 mmHg 81%
    07:00 +2°C° 0.5 mm 3 mps 753 mmHg 83%
    08:00 +2°C° 0.3 mm 3 mps 752 mmHg 84%
    09:00 +2°C° 0.3 mm 3 mps 752 mmHg 86%
    10:00 +2°C° 0.3 mm 3 mps 751 mmHg 87%
    11:00 +2°C° 0.4 mm 3 mps 750 mmHg 88%
    12:00 +2°C° 0.4 mm 3 mps 750 mmHg 90%
    13:00 +2°C° 0.4 mm 3 mps 749 mmHg 91%
    14:00 +2°C° 0.4 mm 3 mps 748 mmHg 93%
    15:00 +2°C° 0.4 mm 3 mps 748 mmHg 95%
    16:00 +2°C° 0.4 mm 3 mps 747 mmHg 96%
    17:00 +3°C° 0.2 mm 3 mps 747 mmHg 96%
    18:00 +3°C° 0.2 mm 3 mps 747 mmHg 96%
    19:00 +3°C° 0.2 mm 3 mps 748 mmHg 96%
    20:00 +3°C° 0.1 mm 3 mps 748 mmHg 94%
    21:00 +3°C° 0.1 mm 3 mps 747 mmHg 91%
    22:00 +3°C° 0.1 mm 3 mps 747 mmHg 89%
    23:00 +2°C° 0 mm 3 mps 747 mmHg 91%

    12 December, Thursday

    Time Temperature Precipitation Wind Pressure Humidity
    00:00 +2°C° 0 mm 3 mps 747 mmHg 93%
    01:00 +3°C° 0 mm 2 mps 746 mmHg 96%
    02:00 +2°C° 0.3 mm 3 mps 746 mmHg 96%
    03:00 +2°C° 0.3 mm 3 mps 746 mmHg 96%
    04:00 +2°C° 0.3 mm 3 mps 746 mmHg 97%
    05:00 +1°C° 0.6 mm 4 mps 746 mmHg 94%
    06:00 +1°C° 0.6 mm 4 mps 746 mmHg 92%
    07:00 +1°C° 0.6 mm 5 mps 747 mmHg 90%
    08:00 +1°C° 0 mm 5 mps 747 mmHg 87%
    09:00 +1°C° 0 mm 5 mps 748 mmHg 85%
    10:00 +1°C° 0 mm 5 mps 749 mmHg 82%
    11:00 +1°C° 0 mm 5 mps 749 mmHg 81%
    12:00 +2°C° 0 mm 5 mps 749 mmHg 80%
    13:00 +2°C° 0 mm 5 mps 749 mmHg 79%
    14:00 +2°C° 0 mm 5 mps 748 mmHg 80%
    15:00 +2°C° 0 mm 5 mps 747 mmHg 80%
    16:00 +1°C° 0 mm 5 mps 746 mmHg 80%
    17:00 +1°C° 0 mm 6 mps 745 mmHg 81%
    18:00 +1°C° 0 mm 6 mps 743 mmHg 81%
    19:00 +1°C° 0 mm 6 mps 742 mmHg 81%
    20:00 0°C° 0.3 mm 7 mps 739 mmHg 85%
    21:00 +2°C° 0.3 mm 7 mps 737 mmHg 89%
    22:00 +1°C° 0.3 mm 8 mps 735 mmHg 92%
    23:00 +2°C° 1.5 mm 7 mps 733 mmHg 92%

    13 December, Friday

    Time Temperature Precipitation Wind Pressure Humidity
    00:00 +3°C° 1.5 mm 7 mps 732 mmHg 92%
    01:00 +4°C° 1.5 mm 6 mps 730 mmHg 92%
    02:00 +3°C° 0.8 mm 6 mps 730 mmHg 91%
    03:00 +3°C° 0.8 mm 5 mps 730 mmHg 91%
    04:00 +2°C° 0.8 mm 5 mps 729 mmHg 90%
    05:00 +2°C° 0.2 mm 5 mps 729 mmHg 88%
    06:00 +2°C° 0.2 mm 5 mps 729 mmHg 87%
    07:00 +1°C° 0.2 mm 4 mps 729 mmHg 85%
    08:00 +2°C° 0.1 mm 5 mps 730 mmHg 83%
    09:00 +2°C° 0.1 mm 6 mps 730 mmHg 80%
    10:00 +2°C° 0.1 mm 6 mps 731 mmHg 77%
    11:00 +2°C° 0 mm 7 mps 731 mmHg 78%
    12:00 +2°C° 0 mm 7 mps 731 mmHg 78%
    13:00 +2°C° 0 mm 8 mps 731 mmHg 78%
    14:00 +2°C° 0.2 mm 8 mps 732 mmHg 81%
    15:00 +2°C° 0.2 mm 8 mps 733 mmHg 84%
    16:00 +2°C° 0.2 mm 8 mps 733 mmHg 86%
    17:00 +2°C° 0.2 mm 8 mps 734 mmHg 85%
    18:00 +3°C° 0.2 mm 7 mps 735 mmHg 84%
    19:00 +3°C° 0.2 mm 6 mps 736 mmHg 82%
    20:00 +3°C° 0.1 mm 6 mps 736 mmHg 84%
    21:00 +3°C° 0.1 mm 6 mps 736 mmHg 86%
    22:00 +2°C° 0.1 mm 6 mps 737 mmHg 88%
    23:00 +2°C° 0.1 mm 5 mps 737 mmHg 87%

    14 December, Saturday

    Time Temperature Precipitation Wind Pressure Humidity
    00:00 +2°C° 0.1 mm 5 mps 737 mmHg 85%
    01:00 +2°C° 0.1 mm 5 mps 737 mmHg 84%
    02:00 +2°C° 0.1 mm 5 mps 737 mmHg 86%
    03:00 +2°C° 0.1 mm 5 mps 737 mmHg 87%
    04:00 +3°C° 0.1 mm 4 mps 738 mmHg 89%
    05:00 +3°C° 0.5 mm 5 mps 738 mmHg 87%
    06:00 +3°C° 0.5 mm 5 mps 739 mmHg 86%
    07:00 +3°C° 0.5 mm 5 mps 740 mmHg 85%
    08:00 +3°C° 0 mm 5 mps 741 mmHg 85%
    09:00 +3°C° 0 mm 5 mps 742 mmHg 85%
    10:00 +3°C° 0 mm 5 mps 743 mmHg 84%
    11:00 +3°C° 0.1 mm 6 mps 744 mmHg 79%
    12:00 +4°C° 0.1 mm 6 mps 745 mmHg 73%
    13:00 +5°C° 0.1 mm 6 mps 745 mmHg 67%
    14:00 +5°C° 0 mm 5 mps 746 mmHg 72%
    15:00 +5°C° 0 mm 4 mps 746 mmHg 77%
    16:00 +5°C° 0 mm 3 mps 746 mmHg 81%
    17:00 +5°C° 0.2 mm 3 mps 747 mmHg 85%
    18:00 +5°C° 0.2 mm 3 mps 747 mmHg 88%
    19:00 +7°C° 0.2 mm 3 mps 747 mmHg 91%
    20:00 +6°C° 0 mm 4 mps 747 mmHg 90%
    21:00 +7°C° 0 mm 4 mps 747 mmHg 89%
    22:00 +7°C° 0 mm 4 mps 747 mmHg 88%
    23:00 +7°C° 0.2 mm 4 mps 747 mmHg 90%
    Show more